Grand Forks AFB, ND

12:51 AM CST on February 20, 2018 (GMT -0600)
Grand Forks Air Force Base

Weather History for KRDR - February, 2014

Change the Weather History Date:

Tuesday, February 4, 2014

  Actual Average Record
Temperature  
Mean Temperature -6 °F -  
Max Temperature 2 °F 19 °F 36 °F (2011)
Min Temperature -15 °F 1 °F -24 °F (2007)
Degree Days  
Heating Degree Days 72    
Moisture  
Dew Point -15 °F    
Average Humidity 68    
Maximum Humidity 77    
Minimum Humidity 56    
Precipitation  
Precipitation 0.00 in - - ()
Sea Level Pressure  
Sea Level Pressure 30.65 in    
Wind  
Wind Speed 8 mph (NW)    
Max Wind Speed 12 mph    
Max Gust Speed -    
Visibility 10 miles    
Events Snow    
Averages and records for this station are not official NWS values.
T = Trace of Precipitation, MM = Missing Value Source: NWS Daily Summary

Daily Weather History Graph

Daily Weather History Graph

Search for Another Location

Airport or City:

Trip Planner

Search our weather history database for the weather conditions in past years. The results will help you decide how hot, cold, wet, or windy it might be!

Date:

Astronomy

Feb. 04, 2014 Rise Set
Actual Time 7:52 AM CST 5:34 PM CST
Civil Twilight 7:20 AM CST 6:07 PM CST
Nautical Twilight 6:43 AM CST 6:44 PM CST
Astronomical Twilight 6:06 AM CST 7:20 PM CST
Moon 10:04 AM CST (2/4) No Moon Set
Length of Visible Light 10h 47m
Length of Day
9h 41m
Waxing Crescent, 29% of the Moon is Illuminated
Feb 4
Waxing Crescent
Feb 6
First Quarter
Feb 14
Full
Feb 22
Last Quarter
Mar 1
New

Hourly Weather History & Observations

Time (CST) Temp. Windchill Dew Point Humidity Pressure Visibility Wind Dir Wind Speed Gust Speed Precip Events Conditions
12:58 AM -10.3 °F -26.7 °F -17.7 °F 70% 30.54 in 10.0 mi NW 8.1 mph - N/A   Clear
1:58 AM -12.1 °F -30.1 °F -18.9 °F 72% 30.56 in 10.0 mi NW 9.2 mph - N/A   Clear
2:58 AM -9.8 °F -26.1 °F -17.3 °F 69% 30.58 in 10.0 mi NW 8.1 mph - N/A   Clear
3:58 AM -13.9 °F -31.1 °F -20.4 °F 73% 30.59 in 10.0 mi WNW 8.1 mph - 0.00 in Snow Light Snow
4:13 AM -14.8 °F -32.2 °F -20.2 °F 77% 30.50 in 10.0 mi WNW 8.1 mph - N/A   Clear
4:58 AM -14.4 °F -31.8 °F -20.9 °F 73% 30.61 in 10.0 mi WNW 8.1 mph - 0.00 in   Clear
5:58 AM -14.6 °F -34.4 °F -21.5 °F 71% 30.63 in 10.0 mi WNW 10.4 mph - N/A   Clear
6:58 AM -15.2 °F -33.9 °F -21.6 °F 73% 30.62 in 10.0 mi NW 9.2 mph - N/A   Clear
7:58 AM -12.3 °F -29.1 °F -19.5 °F 70% 30.64 in 10.0 mi WNW 8.1 mph - N/A   Clear
8:58 AM -10.5 °F -25.6 °F -18.0 °F 69% 30.66 in 10.0 mi WNW 6.9 mph - N/A   Clear
9:58 AM -6.7 °F -24.5 °F -15.9 °F 64% 30.67 in 10.0 mi NW 10.4 mph - N/A   Clear
10:58 AM -2.9 °F -18.8 °F -14.3 °F 58% 30.68 in 10.0 mi NNW 9.2 mph - N/A   Clear
11:58 AM -1.3 °F -16.8 °F -13.0 °F 58% 30.69 in 10.0 mi NW 9.2 mph - N/A   Clear
12:58 PM 0.3 °F -15.8 °F -10.8 °F 59% 30.68 in 10.0 mi NNW 10.4 mph - N/A   Clear
1:58 PM 1.8 °F -14.0 °F -9.9 °F 58% 30.67 in 10.0 mi North 10.4 mph - N/A   Clear
2:58 PM 2.8 °F -13.5 °F -9.6 °F 56% 30.64 in 10.0 mi NNW 11.5 mph - N/A   Clear
3:58 PM 2.5 °F -11.1 °F -8.1 °F 61% 30.66 in 10.0 mi North 8.1 mph - N/A   Clear
4:58 PM 1.0 °F -12.9 °F -8.5 °F 64% 30.68 in 10.0 mi NNW 8.1 mph - N/A   Clear
5:58 PM -1.3 °F -9.3 °F -9.4 °F 69% 30.69 in 10.0 mi NW 3.5 mph - N/A   Clear
6:58 PM -5.6 °F -16.5 °F -11.9 °F 74% 30.71 in 10.0 mi NNW 4.6 mph - 0.00 in   Clear
7:58 PM -7.6 °F -23.4 °F -13.4 °F 76% 30.71 in 10.0 mi NW 8.1 mph - 0.00 in   Clear
8:58 PM -5.8 °F -22.4 °F -13.2 °F 70% 30.69 in 10.0 mi NW 9.2 mph - N/A   Clear
9:58 PM -7.6 °F -24.6 °F -14.4 °F 72% 30.70 in 10.0 mi NW 9.2 mph - N/A   Clear
10:58 PM -7.2 °F -21.7 °F -14.1 °F 72% 30.71 in 10.0 mi NW 6.9 mph - N/A   Clear
11:58 PM -7.6 °F -23.4 °F -14.8 °F 71% 30.71 in 10.0 mi NW 8.1 mph - N/A   Partly Cloudy